• In Deutschland
  • Länderverzeichnis
  • Für 7 Tage
  • Wassertemperatur
  • Satellitenkarten
  • Wetterkarte
  • Widgets
  • user-avatar
    Anmelden

    Stündliche Wetter Trier

    Heute, 21 Februar, Mittwoch

    Zeit Temperatur Niederschläge Wind Luftdruck Luftfeuchtigkeit
    00:00 -3°C° 0 mm 2 m/S 752 mmHg 86%
    01:00 -3°C° 0 mm 2 m/S 752 mmHg 85%
    02:00 -3°C° 0 mm 2 m/S 753 mmHg 85%
    03:00 -4°C° 0 mm 3 m/S 753 mmHg 84%
    04:00 -4°C° 0 mm 3 m/S 753 mmHg 84%
    05:00 -4°C° 0 mm 3 m/S 753 mmHg 84%
    06:00 -4°C° 0 mm 3 m/S 753 mmHg 85%
    07:00 -3°C° 0 mm 4 m/S 753 mmHg 80%
    08:00 -2°C° 0 mm 4 m/S 754 mmHg 75%
    09:00 -1°C° 0 mm 4 m/S 754 mmHg 71%
    10:00 0°C° 0 mm 5 m/S 754 mmHg 66%
    11:00 +1°C° 0 mm 5 m/S 753 mmHg 60%
    12:00 +3°C° 0 mm 5 m/S 753 mmHg 55%
    13:00 +3°C° 0 mm 5 m/S 753 mmHg 56%
    14:00 +3°C° 0 mm 5 m/S 753 mmHg 56%
    15:00 +4°C° 0 mm 4 m/S 752 mmHg 56%
    16:00 +1°C° 0 mm 4 m/S 752 mmHg 63%
    17:00 0°C° 0 mm 4 m/S 753 mmHg 69%
    18:00 -1°C° 0 mm 3 m/S 753 mmHg 75%
    19:00 -1°C° 0 mm 3 m/S 753 mmHg 76%
    20:00 -2°C° 0 mm 4 m/S 753 mmHg 77%
    21:00 -3°C° 0 mm 4 m/S 753 mmHg 78%
    22:00 -3°C° 0 mm 4 m/S 753 mmHg 78%
    23:00 -3°C° 0 mm 4 m/S 753 mmHg 78%

    Morgen, 22 Februar, Donnerstag

    Zeit Temperatur Niederschläge Wind Luftdruck Luftfeuchtigkeit
    00:00 -4°C° 0 mm 4 m/S 753 mmHg 78%
    01:00 -4°C° 0 mm 4 m/S 753 mmHg 78%
    02:00 -4°C° 0 mm 4 m/S 752 mmHg 78%
    03:00 -4°C° 0 mm 4 m/S 752 mmHg 78%
    04:00 -5°C° 0 mm 5 m/S 752 mmHg 77%
    05:00 -5°C° 0 mm 5 m/S 752 mmHg 76%
    06:00 -5°C° 0 mm 5 m/S 752 mmHg 75%
    07:00 -4°C° 0 mm 5 m/S 752 mmHg 68%
    08:00 -4°C° 0 mm 6 m/S 753 mmHg 62%
    09:00 -3°C° 0 mm 6 m/S 753 mmHg 55%
    10:00 -2°C° 0 mm 7 m/S 753 mmHg 50%
    11:00 -1°C° 0 mm 7 m/S 752 mmHg 46%
    12:00 0°C° 0 mm 7 m/S 752 mmHg 41%
    13:00 0°C° 0 mm 7 m/S 752 mmHg 42%
    14:00 +1°C° 0 mm 6 m/S 752 mmHg 43%
    15:00 +1°C° 0 mm 6 m/S 751 mmHg 44%
    16:00 -1°C° 0 mm 6 m/S 751 mmHg 49%
    17:00 -1°C° 0 mm 5 m/S 752 mmHg 54%
    18:00 -4°C° 0 mm 5 m/S 752 mmHg 59%
    19:00 -4°C° 0 mm 5 m/S 752 mmHg 60%
    20:00 -4°C° 0 mm 5 m/S 752 mmHg 61%
    21:00 -4°C° 0 mm 5 m/S 752 mmHg 62%
    22:00 -5°C° 0 mm 5 m/S 752 mmHg 63%
    23:00 -5°C° 0 mm 5 m/S 752 mmHg 64%

    übermorgen, 23 Februar, Freitag

    Zeit Temperatur Niederschläge Wind Luftdruck Luftfeuchtigkeit
    00:00 -5°C° 0 mm 5 m/S 752 mmHg 65%
    01:00 -5°C° 0 mm 5 m/S 752 mmHg 64%
    02:00 -5°C° 0 mm 5 m/S 751 mmHg 64%
    03:00 -6°C° 0 mm 5 m/S 751 mmHg 63%
    04:00 -6°C° 0 mm 5 m/S 751 mmHg 63%
    05:00 -6°C° 0 mm 5 m/S 751 mmHg 62%
    06:00 -6°C° 0 mm 5 m/S 751 mmHg 61%
    07:00 -5°C° 0 mm 5 m/S 751 mmHg 57%
    08:00 -5°C° 0 mm 6 m/S 752 mmHg 53%
    09:00 -4°C° 0 mm 6 m/S 752 mmHg 49%
    10:00 -3°C° 0 mm 6 m/S 752 mmHg 45%
    11:00 -2°C° 0 mm 6 m/S 751 mmHg 42%
    12:00 -1°C° 0 mm 6 m/S 751 mmHg 38%
    13:00 +1°C° 0 mm 6 m/S 751 mmHg 38%
    14:00 +1°C° 0 mm 6 m/S 751 mmHg 38%
    15:00 +1°C° 0 mm 6 m/S 750 mmHg 38%
    16:00 -1°C° 0 mm 6 m/S 751 mmHg 41%
    17:00 -1°C° 0 mm 5 m/S 751 mmHg 44%
    18:00 -2°C° 0 mm 5 m/S 751 mmHg 47%
    19:00 -4°C° 0 mm 5 m/S 751 mmHg 48%
    20:00 -4°C° 0 mm 5 m/S 751 mmHg 50%
    21:00 -4°C° 0 mm 5 m/S 751 mmHg 52%
    22:00 -4°C° 0 mm 5 m/S 751 mmHg 53%
    23:00 -4°C° 0 mm 5 m/S 751 mmHg 55%

    24 Februar, Samstag

    Zeit Temperatur Niederschläge Wind Luftdruck Luftfeuchtigkeit
    00:00 -4°C° 0 mm 6 m/S 751 mmHg 56%
    01:00 -4°C° 0 mm 6 m/S 751 mmHg 57%
    02:00 -4°C° 0 mm 6 m/S 750 mmHg 57%
    03:00 -5°C° 0 mm 5 m/S 750 mmHg 58%
    04:00 -4°C° 0 mm 6 m/S 750 mmHg 57%
    05:00 -4°C° 0 mm 6 m/S 750 mmHg 56%
    06:00 -4°C° 0 mm 6 m/S 751 mmHg 55%
    07:00 -4°C° 0 mm 6 m/S 751 mmHg 50%
    08:00 -3°C° 0 mm 7 m/S 751 mmHg 45%
    09:00 -2°C° 0 mm 8 m/S 751 mmHg 40%
    10:00 -1°C° 0 mm 8 m/S 751 mmHg 38%
    11:00 +1°C° 0 mm 8 m/S 751 mmHg 36%
    12:00 +2°C° 0 mm 8 m/S 751 mmHg 34%
    13:00 +2°C° 0 mm 8 m/S 750 mmHg 35%
    14:00 +2°C° 0 mm 8 m/S 750 mmHg 37%
    15:00 +2°C° 0 mm 8 m/S 750 mmHg 39%
    16:00 +2°C° 0 mm 7 m/S 750 mmHg 44%
    17:00 0°C° 0 mm 7 m/S 751 mmHg 50%
    18:00 -2°C° 0 mm 6 m/S 751 mmHg 56%
    19:00 -2°C° 0 mm 7 m/S 751 mmHg 54%
    20:00 -3°C° 0 mm 7 m/S 752 mmHg 53%
    21:00 -3°C° 0 mm 7 m/S 752 mmHg 51%
    22:00 -4°C° 0 mm 7 m/S 752 mmHg 48%
    23:00 -4°C° 0 mm 7 m/S 752 mmHg 46%

    25 Februar, Sonntag

    Zeit Temperatur Niederschläge Wind Luftdruck Luftfeuchtigkeit
    00:00 -6°C° 0 mm 7 m/S 753 mmHg 43%
    01:00 -6°C° 0 mm 7 m/S 753 mmHg 42%
    02:00 -6°C° 0 mm 7 m/S 753 mmHg 42%
    03:00 -7°C° 0 mm 7 m/S 753 mmHg 42%
    04:00 -7°C° 0 mm 7 m/S 753 mmHg 41%
    05:00 -7°C° 0 mm 7 m/S 754 mmHg 39%
    06:00 -8°C° 0 mm 7 m/S 754 mmHg 38%
    07:00 -7°C° 0 mm 7 m/S 754 mmHg 36%
    08:00 -7°C° 0 mm 7 m/S 755 mmHg 34%
    09:00 -6°C° 0 mm 7 m/S 755 mmHg 31%
    10:00 -4°C° 0 mm 7 m/S 755 mmHg 29%
    11:00 -4°C° 0 mm 7 m/S 755 mmHg 27%
    12:00 -3°C° 0 mm 7 m/S 755 mmHg 25%
    13:00 -3°C° 0 mm 7 m/S 755 mmHg 25%
    14:00 -3°C° 0 mm 7 m/S 755 mmHg 25%
    15:00 -3°C° 0 mm 7 m/S 755 mmHg 26%
    16:00 -4°C° 0 mm 6 m/S 755 mmHg 28%
    17:00 -5°C° 0 mm 6 m/S 756 mmHg 30%
    18:00 -6°C° 0 mm 5 m/S 756 mmHg 33%
    19:00 -6°C° 0 mm 5 m/S 756 mmHg 34%
    20:00 -8°C° 0 mm 6 m/S 757 mmHg 35%
    21:00 -8°C° 0 mm 6 m/S 757 mmHg 36%
    22:00 -8°C° 0 mm 6 m/S 757 mmHg 37%
    23:00 -8°C° 0 mm 5 m/S 757 mmHg 39%

    26 Februar, Montag

    Zeit Temperatur Niederschläge Wind Luftdruck Luftfeuchtigkeit
    00:00 -8°C° 0 mm 5 m/S 757 mmHg 40%
    01:00 -8°C° 0 mm 5 m/S 757 mmHg 40%
    02:00 -8°C° 0 mm 5 m/S 757 mmHg 40%
    03:00 -10°C° 0 mm 5 m/S 757 mmHg 40%
    04:00 -10°C° 0 mm 5 m/S 757 mmHg 40%
    05:00 -10°C° 0 mm 5 m/S 757 mmHg 40%
    06:00 -11°C° 0 mm 5 m/S 757 mmHg 40%
    07:00 -10°C° 0 mm 5 m/S 757 mmHg 38%
    08:00 -9°C° 0 mm 6 m/S 757 mmHg 35%
    09:00 -9°C° 0 mm 6 m/S 757 mmHg 33%
    10:00 -8°C° 0 mm 6 m/S 757 mmHg 31%
    11:00 -6°C° 0 mm 6 m/S 757 mmHg 29%
    12:00 -5°C° 0 mm 6 m/S 756 mmHg 27%
    13:00 -5°C° 0 mm 6 m/S 756 mmHg 27%
    14:00 -5°C° 0 mm 6 m/S 756 mmHg 28%
    15:00 -5°C° 0 mm 6 m/S 755 mmHg 28%
    16:00 -6°C° 0 mm 5 m/S 755 mmHg 32%
    17:00 -7°C° 0 mm 4 m/S 755 mmHg 35%
    18:00 -6°C° 0 mm 3 m/S 755 mmHg 39%
    19:00 -7°C° 0 mm 3 m/S 755 mmHg 40%
    20:00 -8°C° 0 mm 4 m/S 755 mmHg 41%
    21:00 -8°C° 0 mm 4 m/S 755 mmHg 42%
    22:00 -9°C° 0 mm 4 m/S 755 mmHg 44%
    23:00 -9°C° 0 mm 4 m/S 755 mmHg 45%
    Mehr zeigen